Location: Northam
(31.6525°S, 116.6655°E)
Time: 21:20:19
(UTC+08:00)

Tiros 1 despin weight - Visible Passes

Search period start: 22 June 2021 00:00
Search period end: 02 July 2021 00:00
Orbit: 594 x 641 km, 48.2° (Epoch: 21 June)

Date Brightness Start Highest point End Pass type
(mag) Time Alt. Az. Time Alt. Az. Time Alt. Az.
22 Jun ? 18:15:31 10° SW 18:18:18 15° SSW 18:21:07 10° SSE visible
23 Jun ? 18:33:30 10° SSW 18:35:12 12° S 18:36:55 10° S visible
24 Jun ? 18:51:30 10° S 18:52:11 10° S 18:52:48 10° S visible
25 Jun ? 19:08:05 10° S 19:08:25 10° S 19:08:25 10° S visible
26 Jun ? 19:23:54 10° SSW 19:24:04 10° SSW 19:24:04 10° SSW visible
27 Jun ? 17:59:13 10° S 17:59:49 10° S 18:00:26 10° S visible
27 Jun ? 19:39:42 10° SSW 19:39:45 10° SSW 19:39:45 10° SSW visible
28 Jun ? 18:15:14 10° S 18:16:48 11° S 18:18:22 10° SSE visible
29 Jun ? 18:31:01 10° SSW 18:33:43 15° SSE 18:34:16 14° SSE visible
30 Jun ? 18:46:51 10° SSW 18:50:11 21° SSE 18:50:11 21° SSE visible
01 Jul ? 19:02:46 10° SW 19:06:16 32° S 19:06:16 32° S visible
